When you browse on this site, cookies collect data to enhance your experience and personalize the content and advertising you see.
Visit our Privacy Policy to learn more. By continuing to use the site, you agree to this use of cookies and data.
  • In United Kingdom
  • List of Countries
  • For 7 days
  • Water Temperature
  • Satellite Maps
  • Weather Map
  • Weather Widgets
  • user-avatar
    Login

    Hourly Weather Potuliniec

    Today, 20 February, Wednesday

    Time Temperature Precipitation Wind Pressure Humidity
    00:00 +3°C° 0 mm 6 mps 756 mmHg 86%
    01:00 +3°C° 0 mm 6 mps 756 mmHg 87%
    02:00 +3°C° 0 mm 6 mps 756 mmHg 86%
    03:00 +3°C° 0 mm 6 mps 756 mmHg 86%
    04:00 +3°C° 0 mm 7 mps 756 mmHg 85%
    05:00 +3°C° 0.1 mm 7 mps 757 mmHg 84%
    06:00 +3°C° 0.1 mm 6 mps 757 mmHg 83%
    07:00 +3°C° 0.1 mm 6 mps 757 mmHg 83%
    08:00 +3°C° 0.1 mm 6 mps 758 mmHg 82%
    09:00 +3°C° 0.1 mm 6 mps 758 mmHg 80%
    10:00 +4°C° 0.1 mm 6 mps 759 mmHg 79%
    11:00 +4°C° 0.1 mm 6 mps 759 mmHg 78%
    12:00 +4°C° 0.1 mm 6 mps 759 mmHg 77%
    13:00 +5°C° 0.1 mm 6 mps 760 mmHg 75%
    14:00 +5°C° 0 mm 6 mps 760 mmHg 76%
    15:00 +6°C° 0 mm 5 mps 760 mmHg 76%
    16:00 +6°C° 0 mm 4 mps 761 mmHg 77%
    17:00 +6°C° 0 mm 4 mps 761 mmHg 80%
    18:00 +5°C° 0 mm 3 mps 761 mmHg 82%
    19:00 +5°C° 0 mm 3 mps 761 mmHg 85%
    20:00 +5°C° 0.1 mm 3 mps 761 mmHg 87%
    21:00 +5°C° 0.1 mm 3 mps 761 mmHg 89%
    22:00 +5°C° 0.1 mm 3 mps 762 mmHg 91%
    23:00 +5°C° 0.1 mm 3 mps 762 mmHg 91%

    Tomorrow, 21 February, Thursday

    Time Temperature Precipitation Wind Pressure Humidity
    00:00 +5°C° 0.1 mm 3 mps 762 mmHg 90%
    01:00 +5°C° 0.1 mm 4 mps 762 mmHg 90%
    02:00 +5°C° 0.4 mm 4 mps 761 mmHg 90%
    03:00 +5°C° 0.4 mm 4 mps 761 mmHg 91%
    04:00 +5°C° 0.4 mm 5 mps 760 mmHg 91%
    05:00 +5°C° 1.7 mm 5 mps 760 mmHg 92%
    06:00 +5°C° 1.7 mm 5 mps 760 mmHg 92%
    07:00 +4°C° 1.7 mm 6 mps 760 mmHg 93%
    08:00 +4°C° 0.7 mm 6 mps 760 mmHg 92%
    09:00 +4°C° 0.7 mm 6 mps 760 mmHg 90%
    10:00 +5°C° 0.7 mm 6 mps 760 mmHg 89%
    11:00 +5°C° 0.5 mm 7 mps 760 mmHg 89%
    12:00 +5°C° 0.5 mm 7 mps 759 mmHg 89%
    13:00 +5°C° 0.5 mm 7 mps 759 mmHg 89%
    14:00 +5°C° 0.8 mm 7 mps 759 mmHg 90%
    15:00 +5°C° 0.8 mm 7 mps 760 mmHg 90%
    16:00 +5°C° 0.8 mm 7 mps 760 mmHg 91%
    17:00 +5°C° 0.2 mm 7 mps 760 mmHg 90%
    18:00 +5°C° 0.2 mm 7 mps 760 mmHg 90%
    19:00 +5°C° 0.2 mm 7 mps 761 mmHg 89%
    20:00 +5°C° 0.1 mm 7 mps 761 mmHg 89%
    21:00 +5°C° 0.1 mm 6 mps 762 mmHg 88%
    22:00 +5°C° 0.1 mm 6 mps 763 mmHg 87%
    23:00 +4°C° 0 mm 6 mps 763 mmHg 87%

    Day after tomorrow, 22 February, Friday

    Time Temperature Precipitation Wind Pressure Humidity
    00:00 +3°C° 0 mm 6 mps 764 mmHg 87%
    01:00 +2°C° 0 mm 5 mps 765 mmHg 88%
    02:00 +1°C° 0 mm 5 mps 766 mmHg 86%
    03:00 0°C° 0 mm 5 mps 767 mmHg 85%
    04:00 -1°C° 0 mm 5 mps 768 mmHg 84%
    05:00 -1°C° 0 mm 4 mps 769 mmHg 83%
    06:00 -1°C° 0 mm 4 mps 770 mmHg 81%
    07:00 -1°C° 0 mm 3 mps 771 mmHg 80%
    08:00 -1°C° 0 mm 4 mps 772 mmHg 75%
    09:00 -1°C° 0 mm 4 mps 772 mmHg 69%
    10:00 0°C° 0 mm 4 mps 773 mmHg 63%
    11:00 +1°C° 0 mm 3 mps 774 mmHg 59%
    12:00 +2°C° 0 mm 3 mps 774 mmHg 55%
    13:00 +3°C° 0 mm 3 mps 775 mmHg 51%
    14:00 +4°C° 0 mm 2 mps 775 mmHg 50%
    15:00 +4°C° 0 mm 2 mps 775 mmHg 50%
    16:00 +4°C° 0 mm 2 mps 775 mmHg 50%
    17:00 +3°C° 0 mm 2 mps 775 mmHg 54%
    18:00 +2°C° 0 mm 2 mps 775 mmHg 58%
    19:00 +1°C° 0 mm 2 mps 776 mmHg 63%
    20:00 -1°C° 0 mm 2 mps 776 mmHg 63%
    21:00 -1°C° 0 mm 2 mps 776 mmHg 63%
    22:00 -1°C° 0 mm 2 mps 776 mmHg 63%
    23:00 -1°C° 0 mm 2 mps 776 mmHg 63%

    23 February, Saturday

    Time Temperature Precipitation Wind Pressure Humidity
    00:00 -1°C° 0 mm 2 mps 776 mmHg 62%
    01:00 -2°C° 0 mm 2 mps 776 mmHg 61%
    02:00 -2°C° 0 mm 2 mps 776 mmHg 61%
    03:00 -2°C° 0 mm 2 mps 776 mmHg 60%
    04:00 -2°C° 0 mm 2 mps 776 mmHg 60%
    05:00 -2°C° 0 mm 2 mps 775 mmHg 60%
    06:00 -2°C° 0 mm 2 mps 775 mmHg 61%
    07:00 -2°C° 0 mm 2 mps 775 mmHg 61%
    08:00 -1°C° 0 mm 2 mps 775 mmHg 58%
    09:00 +1°C° 0 mm 2 mps 775 mmHg 55%
    10:00 +2°C° 0 mm 2 mps 775 mmHg 51%
    11:00 +3°C° 0 mm 2 mps 775 mmHg 50%
    12:00 +4°C° 0 mm 2 mps 775 mmHg 48%
    13:00 +5°C° 0 mm 2 mps 775 mmHg 47%
    14:00 +5°C° 0 mm 2 mps 774 mmHg 50%
    15:00 +5°C° 0 mm 2 mps 774 mmHg 54%
    16:00 +5°C° 0 mm 2 mps 773 mmHg 57%
    17:00 +4°C° 0 mm 2 mps 773 mmHg 63%
    18:00 +3°C° 0 mm 2 mps 773 mmHg 68%
    19:00 +3°C° 0 mm 1 mps 773 mmHg 74%
    20:00 +3°C° 0 mm 1 mps 773 mmHg 79%
    21:00 +3°C° 0 mm 1 mps 773 mmHg 83%
    22:00 +3°C° 0 mm 1 mps 773 mmHg 88%
    23:00 +3°C° 0 mm 1 mps 773 mmHg 90%

    24 February, Sunday

    Time Temperature Precipitation Wind Pressure Humidity
    00:00 +3°C° 0 mm 1 mps 773 mmHg 92%
    01:00 +3°C° 0 mm 1 mps 773 mmHg 94%
    02:00 +3°C° 0 mm 1 mps 773 mmHg 95%
    03:00 +2°C° 0 mm 1 mps 773 mmHg 96%
    04:00 +2°C° 0 mm 1 mps 773 mmHg 96%
    05:00 +2°C° 0 mm 1 mps 773 mmHg 96%
    06:00 +2°C° 0 mm 1 mps 773 mmHg 96%
    07:00 +2°C° 0 mm 1 mps 773 mmHg 97%
    08:00 +3°C° 0 mm 1 mps 773 mmHg 93%
    09:00 +4°C° 0 mm 0 mps 774 mmHg 89%
    10:00 +5°C° 0 mm 0 mps 774 mmHg 86%
    11:00 +6°C° 0 mm 0 mps 774 mmHg 82%
    12:00 +7°C° 0 mm 0 mps 774 mmHg 78%
    13:00 +8°C° 0 mm 0 mps 774 mmHg 74%
    14:00 +8°C° 0 mm 0 mps 774 mmHg 75%
    15:00 +8°C° 0 mm 0 mps 774 mmHg 76%
    16:00 +8°C° 0 mm 0 mps 774 mmHg 76%
    17:00 +7°C° 0 mm 0 mps 774 mmHg 81%
    18:00 +6°C° 0 mm 0 mps 774 mmHg 85%
    19:00 +5°C° 0 mm 0 mps 774 mmHg 89%
    20:00 +5°C° 0 mm 0 mps 774 mmHg 89%
    21:00 +5°C° 0 mm 0 mps 774 mmHg 90%
    22:00 +4°C° 0 mm 0 mps 775 mmHg 90%
    23:00 +4°C° 0 mm 0 mps 775 mmHg 90%

    25 February, Monday

    Time Temperature Precipitation Wind Pressure Humidity
    00:00 +4°C° 0 mm 0 mps 775 mmHg 91%
    01:00 +4°C° 0 mm 0 mps 775 mmHg 91%
    02:00 +4°C° 0 mm 0 mps 775 mmHg 92%
    03:00 +4°C° 0 mm 0 mps 775 mmHg 92%
    04:00 +4°C° 0 mm 1 mps 775 mmHg 93%
    05:00 +4°C° 0 mm 1 mps 775 mmHg 94%
    06:00 +4°C° 0 mm 1 mps 775 mmHg 94%
    07:00 +3°C° 0 mm 1 mps 775 mmHg 95%
    08:00 +4°C° 0 mm 2 mps 775 mmHg 92%
    09:00 +5°C° 0 mm 2 mps 775 mmHg 90%
    10:00 +6°C° 0 mm 2 mps 775 mmHg 87%
    11:00 +6°C° 0 mm 2 mps 775 mmHg 85%
    12:00 +7°C° 0 mm 3 mps 775 mmHg 82%
    13:00 +7°C° 0 mm 3 mps 775 mmHg 80%
    14:00 +7°C° 0 mm 3 mps 775 mmHg 81%
    15:00 +6°C° 0 mm 4 mps 775 mmHg 81%
    16:00 +6°C° 0 mm 4 mps 775 mmHg 82%
    17:00 +5°C° 0 mm 3 mps 775 mmHg 86%
    18:00 +3°C° 0 mm 3 mps 775 mmHg 90%
    19:00 +3°C° 0 mm 2 mps 775 mmHg 95%
    20:00 +3°C° 0 mm 2 mps 775 mmHg 92%
    21:00 +2°C° 0 mm 2 mps 775 mmHg 90%
    22:00 +2°C° 0 mm 2 mps 775 mmHg 88%
    23:00 +3°C° 0 mm 1 mps 775 mmHg 85%
    Show more